Content
SEND FEEDBACK

Daily
Averages
Monthly
Summary
United States of America

NEW YORK - CENTRAL PARK, NEW YORK


Home > North America > United States > New York
Elevation: 14 feet     Latitude: 40 47N     Longitude: 073 58W

WEATHER
 
SELECT A DAY
Number of Records: 152,211;   Date Range: 11/1/95 - 11/24/14
 
SHARE

PRINT THIS DATA

[ ← Previous Day ]
WEATHER ALMANAC - OCTOBER 1, 2013
[ Next Day → ]
[ °C ]   °F
Weather ElementAverageHighLow
Temperature69.7 °F82 °F (2:51 pm)60.1 °F (3:51 am)
Dewpoint52.9 °F57 °F (8:51 pm)51.1 °F (2:51 am)
Humidity56.8 %72 % (1:51 am)35 % (2:51 pm)
Barometer29.96 in30.01 in (7:51 am)29.90 in (4:51 pm)
Wind Speed2.2 mph8.1 mph (5:51 pm)
Weather ElementAverage
Visibility10 mi
Wind DirectionENE (61.7 °)

Weather ElementTotal
Precipitation---
Cooling Degree Days6.1 (Base 65)
Growing Degree Days21.1 (Base 50)
Averaged from 23 records on October 1, 2013
WEATHER CONDITIONS BREAKOUT
WIND DIRECTION BREAKOUT
WEATHER BY HOUR - OCTOBER 1, 2013
[ °C ]   °F
Local TimeTemperatureDewpointHumidityBarometerVisibilityWind DirectionWind SpeedGust SpeedPrecipitationEventsConditions
1:51 AM61.0 °F52.0 °F72 %30.00 in10.0 miCalmClear
2:51 AM61.0 °F51.1 °F70 %29.99 in10.0 miVariable4.6 mphClear
3:51 AM60.1 °F51.1 °F72 %29.98 in10.0 miWNW (290°)4.6 mphClear
4:51 AM61.0 °F51.1 °F70 %29.99 in10.0 miWNW (290°)4.6 mphClear
5:51 AM61.0 °F51.1 °F70 %29.99 in10.0 miCalmClear
6:51 AM60.1 °F51.1 °F72 %30.00 in10.0 miCalmClear
7:51 AM60.1 °F51.1 °F72 %30.01 in10.0 miCalmClear
8:51 AM63.0 °F51.1 °F65 %30.01 in10.0 miWest (280°)4.6 mphClear
9:51 AM64.9 °F51.1 °F61 %30.01 in10.0 miCalmClear
10:51 AM69.1 °F52.0 °F54 %30.00 in10.0 miCalmClear
11:51 AM75.0 °F51.1 °F43 %29.99 in10.0 miVariable3.5 mphClear
12:51 PM78.1 °F51.1 °F39 %29.96 in10.0 miVariable3.5 mphClear
1:51 PM80.1 °F51.1 °F36 %29.94 in10.0 miVariable3.5 mphClear
2:51 PM82.0 °F52.0 °F35 %29.92 in10.0 miCalmPartly Cloudy
3:51 PM79.0 °F54.0 °F42 %29.91 in10.0 miCalmPartly Cloudy
4:51 PM79.0 °F53.1 °F40 %29.90 in10.0 miCalmPartly Cloudy
5:51 PM77.0 °F54.0 °F45 %29.91 in10.0 miWest (270°)8.1 mphClear
6:51 PM75.0 °F55.9 °F51 %29.92 in10.0 miCalmClear
7:51 PM73.9 °F55.9 °F53 %29.93 in10.0 miVariable3.5 mphClear
8:51 PM73.0 °F57.0 °F57 %29.94 in10.0 miWNW (290°)5.8 mphClear
9:51 PM72.0 °F55.9 °F57 %29.95 in10.0 miVariable3.5 mphClear
10:51 PM69.1 °F55.9 °F63 %29.95 in10.0 miCalmClear
11:51 PM68.0 °F57.0 °F68 %29.95 in10.0 miCalmClear
Hourly data recorded from KNYC, located miles away from New York - Central Park, New York







STORIES FROM OUR PARTNERS